Volver al catálogo

FLOCK 4BE 1

ActivoCienciaSSO
NORAD 60518·PAYLOAD·🇺🇸 United States

Lanzado Aug 16, 2024 desde Vandenberg Space Force Base

Loading…

Próximos Pases (próximas 24 horas)

TLE

ActualizadoSource: CelesTrak SupGP

Época: Sep 14, 2026, 18:45 UTC

1 60518C 24149AL  26257.78145833  .00038479  00000+0  79475-3 0  2573
2 60518  97.3724 344.0911 0002981 338.8886 215.8832 15.45838123    10

Sigue FLOCK 4BE 1 en tiempo real con AllMySat

Download on the App Store